Weather History for Kenosha, WI

Change the Weather History Date:

Saturday, January 19, 2013

  Actual Average Record
Temperature  
Mean Temperature 35 °F -  
Max Temperature 44 °F 29 °F 50 °F (2006)
Min Temperature 21 °F 14 °F -27 °F (1985)
Degree Days  
Heating Degree Days 30    
Moisture  
Dew Point 27 °F    
Average Humidity 63    
Maximum Humidity 70    
Minimum Humidity 41    
Precipitation  
Precipitation 0.00 in - - ()
Sea Level Pressure  
Sea Level Pressure 29.78 in    
Wind  
Wind Speed 19 mph (WSW)    
Max Wind Speed 38 mph    
Max Gust Speed 52 mph    
Visibility 10 miles    
Events      
Averages and records for this station are not official NWS values.
T = Trace of Precipitation, MM = Missing Value Source: NWS Daily Summary

Daily Weather History Graph

Daily Weather History Graph

Search for Another Location

Airport:

Trip Planner

Search our weather history database for the weather conditions in past years. The results will help you decide how hot, cold, wet, or windy it might be!

Date:

Astronomy

Jan. 19, 2013 Rise Set
Actual Time 7:16 AM CST 4:48 PM CST
Civil Twilight 6:45 AM CST 5:19 PM CST
Nautical Twilight 6:11 AM CST 5:54 PM CST
Astronomical Twilight 5:37 AM CST 6:28 PM CST
Moon 11:16 AM CST (1/19) 12:48 AM CST (1/19)
Length of Visible Light 10h 34m
Length of Day
9h 32m
First Quarter, 57% of the Moon is Illuminated
Jan 19
First Quarter
Jan 26
Full
Feb 3
Last Quarter
Feb 10
New
Feb 17
First Quarter

Hourly Weather History & Observations

Time (CST) Temp. Windchill Dew Point Humidity Pressure Visibility Wind Dir Wind Speed Gust Speed Precip Events Conditions
12:53 AM 39.9 °F 29.7 °F 28.0 °F 63% 29.87 in 10.0 mi WSW 23.0 mph 32.2 mph N/A   Clear
1:53 AM 39.0 °F 30.3 °F 28.9 °F 67% 29.89 in 10.0 mi WSW 16.1 mph - N/A   Clear
2:53 AM 37.9 °F 29.2 °F 28.9 °F 70% 29.88 in 10.0 mi WSW 15.0 mph - N/A   Clear
3:53 AM 39.0 °F 29.6 °F 30.0 °F 70% 29.86 in 10.0 mi WSW 18.4 mph - N/A   Clear
4:53 AM 39.9 °F 30.5 °F 30.0 °F 68% 29.86 in 10.0 mi WSW 19.6 mph 27.6 mph N/A   Mostly Cloudy
6:53 AM 39.9 °F 32.1 °F 30.0 °F 68% 29.85 in 10.0 mi WSW 13.8 mph - N/A   Overcast
7:53 AM 39.9 °F 32.9 °F 30.0 °F 68% 29.85 in 10.0 mi SW 11.5 mph - N/A   Mostly Cloudy
8:53 AM 39.0 °F 32.3 °F 30.0 °F 70% 29.84 in 10.0 mi SW 10.4 mph - N/A   Overcast
9:53 AM 41.0 °F 33.5 °F 30.0 °F 65% 29.83 in 10.0 mi SW 13.8 mph - N/A   Mostly Cloudy
10:53 AM 42.1 °F 34.5 °F 30.9 °F 65% 29.80 in 10.0 mi WSW 15.0 mph 25.3 mph N/A   Scattered Clouds
11:53 AM 42.1 °F 33.3 °F 30.9 °F 65% 29.74 in 10.0 mi SW 19.6 mph 27.6 mph N/A   Overcast
12:53 PM 43.0 °F 35.1 °F 32.0 °F 65% 29.70 in 10.0 mi WSW 17.3 mph 26.5 mph N/A   Overcast
1:53 PM 44.1 °F 35.9 °F 33.1 °F 65% 29.69 in 10.0 mi WSW 19.6 mph 31.1 mph N/A   Overcast
2:53 PM 44.1 °F 35.0 °F 33.1 °F 65% 29.69 in 10.0 mi WSW 24.2 mph 31.1 mph N/A   Mostly Cloudy
3:53 PM 43.0 °F 34.8 °F 33.1 °F 68% 29.68 in 10.0 mi WSW 18.4 mph - N/A   Clear
4:53 PM 43.0 °F 34.5 °F 32.0 °F 65% 29.70 in 10.0 mi WSW 19.6 mph 27.6 mph N/A   Scattered Clouds
5:53 PM 43.0 °F 34.8 °F 33.1 °F 68% 29.70 in 10.0 mi WSW 18.4 mph 25.3 mph N/A   Mostly Cloudy
6:53 PM 42.1 °F 33.6 °F 32.0 °F 67% 29.70 in 10.0 mi WSW 18.4 mph 26.5 mph N/A   Clear
7:53 PM 42.1 °F 32.1 °F 28.9 °F 60% 29.70 in 10.0 mi West 25.3 mph 36.8 mph N/A   Scattered Clouds
8:53 PM 39.9 °F 28.4 °F 18.0 °F 41% 29.70 in 10.0 mi West 29.9 mph 49.5 mph N/A   Partly Cloudy
9:53 PM 33.1 °F 17.6 °F 12.9 °F 43% 29.75 in 10.0 mi West 38.0 mph 51.8 mph N/A   Clear
10:53 PM 26.1 °F 10.4 °F 8.1 °F 47% 29.84 in 10.0 mi WNW 26.5 mph 38.0 mph N/A   Clear
11:53 PM 21.0 °F 3.6 °F 6.1 °F 53% 29.90 in 10.0 mi WNW 26.5 mph 42.6 mph N/A   Clear